Location: Mascot Post Office (historical)
(40.2645°N, 99.5462°W)
Time: 02:14:36
(UTC+00:00)

Cosmos 1140 Rocket - Pass Details

Date: 14 July 2020
Orbit: 744 x 768 km, 74.1° (Epoch: 14 August)

Event Time Altitude Azimuth Distance (km) Brightness Sun altitude
Exits shadow 09:12:15 27° 260° (W) 1,437 4.5 -19.2°
Maximum altitude 09:13:59 34° 297° (WNW) 1,252 4.5 -19.0°
Drops below altitude 10° 09:18:43 10° 1° (N) 2,308 6.7 -18.5°
Sets 09:21:20 0° 11° (N) 3,241 7.9 -18.1°
